| time (UTC) | temp F | wind direction | speed knots | gust knots | rain 1hr in | rain 24hr in | rain mn in | humidity % | barometer mb |
| 20260504184610 | 86 | 330 | 5.2 | 10.4 | 0.00 | 0.00 | 0.00 | 68 | 1016.5 |
| 20260504183052 | 86 | 11 | 7.0 | 10.4 | 0.00 | 0.00 | 0.00 | 71 | 1016.6 |
| 20260504181550 | 86 | 315 | 6.1 | 13.9 | 0.00 | 0.00 | 0.00 | 69 | 1016.8 |
| 20260504180051 | 86 | 19 | 7.8 | 12.2 | 0.00 | 0.00 | 0.00 | 72 | 1017.0 |
| 20260504174552 | 86 | 340 | 6.1 | 9.6 | 0.00 | 0.00 | 0.00 | 73 | 1017.1 |
| 20260504173056 | 86 | 19 | 5.2 | 11.3 | 0.00 | 0.00 | 0.00 | 74 | 1017.3 |
| 20260504171550 | 86 | 341 | 5.2 | 12.2 | 0.00 | 0.00 | 0.00 | 74 | 1017.6 |
| 20260504170109 | 84 | 304 | 7.8 | 12.2 | 0.00 | 0.00 | 0.00 | 75 | 1017.6 |
| 20260504081552 | 72 | 105 | 0.9 | 3.5 | 0.00 | 0.00 | 0.00 | 86 | 1017.3 |
| 20260504044553 | 75 | 117 | 1.7 | 1.7 | 0.00 | 0.00 | 0.00 | 82 | 1018.2 |
| 20260504043055 | 75 | 179 | 1.7 | 3.5 | 0.00 | 0.00 | 0.00 | 82 | 1018.5 |
| 20260504041554 | 76 | 146 | 1.7 | 2.6 | 0.00 | 0.00 | 0.00 | 82 | 1018.7 |
| 20260504040106 | 76 | 113 | 0.0 | 2.6 | 0.00 | 0.00 | 0.00 | 82 | 1018.8 |
| 20260504034559 | 76 | 95 | 1.7 | 3.5 | 0.00 | 0.00 | 0.00 | 81 | 1018.9 |
| 20260504033126 | 76 | 92 | 1.7 | 5.2 | 0.00 | 0.00 | 0.00 | 82 | 1019.1 |
| 20260504031551 | 76 | 114 | 0.9 | 2.6 | 0.00 | 0.00 | 0.00 | 83 | 1019.0 |
| 20260504030052 | 76 | 128 | 0.9 | 2.6 | 0.00 | 0.00 | 0.00 | 83 | 1018.9 |
| 20260504024552 | 76 | 0 | 0.0 | 1.7 | 0.00 | 0.00 | 0.00 | 86 | 1018.9 |
| 20260504023101 | 77 | 106 | 0.9 | 1.7 | 0.00 | 0.00 | 0.00 | 86 | 1018.9 |
| 20260504021552 | 77 | 0 | 0.0 | 0.0 | 0.00 | 0.00 | 0.00 | 87 | 1018.7 |
| 20260504020058 | 76 | 0 | 0.0 | 0.0 | 0.00 | 0.00 | 0.00 | 88 | 1018.5 |
| 20260504014558 | 77 | 0 | 0.0 | 0.9 | 0.00 | 0.00 | 0.00 | 88 | 1018.3 |
| 20260504013106 | 77 | 0 | 0.0 | 1.7 | 0.00 | 0.00 | 0.00 | 88 | 1018.1 |
| 20260504011553 | 78 | 0 | 0.0 | 1.7 | 0.00 | 0.00 | 0.00 | 88 | 1018.0 |
| 20260504010111 | 78 | 0 | 0.0 | 1.7 | 0.00 | 0.00 | 0.00 | 87 | 1017.9 |
| 20260504004621 | 78 | 0 | 0.0 | 1.7 | 0.00 | 0.00 | 0.00 | 87 | 1017.9 |
| 20260504003053 | 78 | 0 | 0.0 | 1.7 | 0.00 | 0.00 | 0.00 | 88 | 1017.8 |
| 20260504001549 | 79 | 189 | 0.0 | 0.9 | 0.00 | 0.00 | 0.00 | 87 | 1017.7 |
| 20260504000050 | 79 | 0 | 0.0 | 0.0 | 0.00 | 0.00 | 0.00 | 87 | 1017.7 |
| 20260503234554 | 80 | 0 | 0.0 | 0.0 | 0.00 | 0.01 | 0.00 | 86 | 1017.5 |
| 20260503233051 | 80 | 0 | 0.0 | 0.0 | 0.00 | 0.01 | 0.00 | 85 | 1017.3 |
| 20260503231555 | 81 | 0 | 0.0 | 0.0 | 0.00 | 0.01 | 0.00 | 84 | 1017.4 |
| 20260503230058 | 81 | 0 | 0.0 | 0.0 | 0.00 | 0.01 | 0.00 | 83 | 1017.3 |
| 20260503224554 | 82 | 0 | 0.0 | 0.0 | 0.00 | 0.71 | 0.00 | 81 | 1017.1 |
| 20260503223059 | 83 | 0 | 0.0 | 0.0 | 0.00 | 0.71 | 0.00 | 80 | 1016.9 |
| 20260503221557 | 83 | 0 | 0.0 | 0.0 | 0.00 | 0.71 | 0.00 | 77 | 1016.7 |
| 20260503220055 | 84 | 0 | 0.0 | 1.7 | 0.00 | 0.71 | 0.00 | 77 | 1016.6 |
| 20260503214553 | 84 | 48 | 0.9 | 3.5 | 0.00 | 0.72 | 0.00 | 77 | 1016.7 |
| 20260503213106 | 84 | 55 | 1.7 | 7.0 | 0.00 | 0.72 | 0.00 | 77 | 1016.7 |
| 20260503211554 | 84 | 337 | 4.3 | 7.0 | 0.00 | 0.72 | 0.00 | 78 | 1016.7 |
| 20260503210109 | 84 | 347 | 4.3 | 8.7 | 0.00 | 0.72 | 0.00 | 77 | 1016.6 |
| 20260503204600 | 84 | 360 | 3.5 | 7.0 | 0.00 | 0.87 | 0.00 | 77 | 1016.5 |
| 20260503203104 | 85 | 20 | 5.2 | 9.6 | 0.00 | 0.87 | 0.00 | 77 | 1016.5 |
| 20260503201553 | 84 | 13 | 2.6 | 7.8 | 0.00 | 0.87 | 0.00 | 78 | 1016.6 |
| 20260503200058 | 84 | 11 | 4.3 | 8.7 | 0.00 | 0.87 | 0.00 | 77 | 1016.7 |
| 20260503194555 | 84 | 23 | 2.6 | 7.0 | 0.00 | 0.87 | 0.00 | 78 | 1016.7 |
| 20260503193056 | 84 | 30 | 4.3 | 8.7 | 0.00 | 0.87 | 0.00 | 75 | 1016.8 |
| 20260503191620 | 85 | 44 | 5.2 | 10.4 | 0.00 | 0.87 | 0.00 | 74 | 1016.9 |
| 20260503190050 | 85 | 34 | 4.3 | 8.7 | 0.00 | 0.87 | 0.00 | 74 | 1017.0 |